"Pseudo-MPEC" for C0Z0JJ2

Created 2019 Sep 12 8:07:09 UT using Find_Orb

Click here for an explanation of pseudo-MPECs

 
 Astrometry: 
     C0Z0JJ2  C2019 09 07.34018 23 26 16.63 -16 55 37.6    ~979M 20.7 GVNEOCPG96
     C0Z0JJ2  C2019 09 07.34481 23 26 16.34 -16 56 52.4    ~979M 20.8 GVNEOCPG96
     C0Z0JJ2  C2019 09 07.34944 23 26 15.97 -16 58 07.0    ~979M 20.4 GVNEOCPG96
     C0Z0JJ2  C2019 09 07.35407 23 26 15.72 -16 59 20.0    ~979M 20.6 GVNEOCPG96

Station data:
(G96) Mt. Lemmon Survey  (N32.442754 W110.788720)  US/Arizona.  Observers T.
   A. Pruyne, B. M. Africano, E. J. Christensen, G. A. Farneth, D. C. Fuls,
   A. R. Gibbs, A. D. Grauer, H. Groeller, J. A. Johnson, R. A. Kowalski, S.
   M. Larson, G. J. Leonard, D. Rankin, R. L. Seaman, F. C. Shelly. 1.5-m
   reflector + 10K CCD.

Orbital elements:  C0Z0JJ2
   Perigee 2019 Sep 5.828344 +/- 68.3 TT = 19:52:48 (JD 2458732.328344)
Epoch 2019 Sep  7.0 TT = JDT 2458733.5                        AutoNEOCP
q 92323.2517 +/- 3.43e+7            (J2000 equator)
H   31.8  G 0.15                    Peri.  108.92623 +/- 100
                                    Node   163.54926 +/- 41
e   7.2604174 +/- 0.272             Incl.   64.69089 +/- 21
From 4 observations 2019 Sept. 7 (20.0 min); mean residual 0".25
Residuals in arcseconds: 
190907 G96  .11-  .03-    190907 G96  .46-  .25-    
190907 G96  .39+  .17+    190907 G96  .17+  .11+    

Ephemerides (geocentric):
Date (UTC) HH   RA              Dec         delta   r     elong  mag " sig PA
---- -- -- --  -------------   -----------  ------ ------ -----  --- ---- ---
2019 09 12 08  23 38 55.196   -22 11 30.32  .01990 1.0254 161.6 24.3  54d 177
2019 09 12 09  23 38 56.708   -22 12 06.61  .02002 1.0256 161.5 24.3  54d 177
2019 09 12 10  23 38 58.200   -22 12 42.36  .02015 1.0257 161.5 24.3  54d 176
2019 09 12 11  23 38 59.673   -22 13 17.58  .02028 1.0258 161.5 24.3  54d 176
2019 09 12 12  23 39 01.126   -22 13 52.27  .02040 1.0259 161.5 24.4  54d 176
2019 09 12 13  23 39 02.561   -22 14 26.45  .02053 1.0260 161.5 24.4  54d 176
2019 09 12 14  23 39 03.977   -22 15 00.13  .02066 1.0261 161.4 24.4  54d 176
2019 09 12 15  23 39 05.375   -22 15 33.31  .02078 1.0262 161.4 24.4  54d 176
2019 09 12 16  23 39 06.756   -22 16 06.00  .02091 1.0263 161.4 24.4  54d 176
2019 09 12 17  23 39 08.118   -22 16 38.21  .02104 1.0264 161.4 24.4  54d 176
2019 09 12 18  23 39 09.464   -22 17 09.96  .02116 1.0265 161.4 24.4  54d 175
2019 09 12 19  23 39 10.792   -22 17 41.24  .02129 1.0266 161.4 24.5  54d 175
2019 09 12 20  23 39 12.104   -22 18 12.06  .02142 1.0267 161.3 24.5  54d 175
2019 09 12 21  23 39 13.400   -22 18 42.44  .02154 1.0268 161.3 24.5  54d 175
2019 09 12 22  23 39 14.679   -22 19 12.38  .02167 1.0270 161.3 24.5  54d 175
2019 09 12 23  23 39 15.943   -22 19 41.88  .02180 1.0271 161.3 24.5  54d 175
2019 09 13 00  23 39 17.191   -22 20 10.96  .02193 1.0272 161.3 24.5  54d 175
2019 09 13 01  23 39 18.424   -22 20 39.61  .02205 1.0273 161.3 24.5  54d 175
2019 09 13 02  23 39 19.641   -22 21 07.86  .02218 1.0274 161.2 24.5  53d 176
2019 09 13 03  23 39 20.844   -22 21 35.69  .02231 1.0275 161.2 24.6  53d 176
2019 09 13 04  23 39 22.032   -22 22 03.13  .02243 1.0276 161.2 24.6  53d 176
2019 09 13 05  23 39 23.206   -22 22 30.18  .02256 1.0277 161.2 24.6  53d 176
2019 09 13 06  23 39 24.366   -22 22 56.83  .02269 1.0278 161.2 24.6  53d 176
2019 09 13 07  23 39 25.512   -22 23 23.11  .02281 1.0279 161.2 24.6  53d 176
2019 09 13 08  23 39 26.644   -22 23 49.00  .02294 1.0280 161.2 24.6  54d 176
2019 09 13 09  23 39 27.763   -22 24 14.53  .02307 1.0281 161.1 24.6  54d 176
2019 09 13 10  23 39 28.868   -22 24 39.70  .02319 1.0282 161.1 24.6  54d 176
2019 09 13 11  23 39 29.961   -22 25 04.50  .02332 1.0283 161.1 24.7  55d 176
2019 09 13 12  23 39 31.040   -22 25 28.95  .02345 1.0285 161.1 24.7  55d 176
2019 09 13 13  23 39 32.107   -22 25 53.05  .02358 1.0286 161.1 24.7  55d 176
2019 09 13 14  23 39 33.161   -22 26 16.81  .02370 1.0287 161.1 24.7  55d 176
2019 09 13 15  23 39 34.203   -22 26 40.23  .02383 1.0288 161.0 24.7  56d 176
2019 09 13 16  23 39 35.233   -22 27 03.31  .02396 1.0289 161.0 24.7  56d 176
2019 09 13 17  23 39 36.251   -22 27 26.07  .02408 1.0290 161.0 24.7  56d 176
2019 09 13 18  23 39 37.257   -22 27 48.50  .02421 1.0291 161.0 24.7  56d 175
2019 09 13 19  23 39 38.252   -22 28 10.61  .02434 1.0292 161.0 24.8  57d 175
2019 09 13 20  23 39 39.235   -22 28 32.41  .02447 1.0293 161.0 24.8  57d 175
2019 09 13 21  23 39 40.207   -22 28 53.90  .02459 1.0294 160.9 24.8  58d 174
2019 09 13 22  23 39 41.168   -22 29 15.07  .02472 1.0295 160.9 24.8  59d 174
2019 09 13 23  23 39 42.119   -22 29 35.95  .02485 1.0296 160.9 24.8  60d 174
2019 09 14 00  23 39 43.058   -22 29 56.53  .02497 1.0297 160.9 24.8  62d 174
2019 09 14 01  23 39 43.987   -22 30 16.82  .02510 1.0299 160.9 24.8  63d 174
2019 09 14 02  23 39 44.905   -22 30 36.81  .02523 1.0300 160.9 24.8  63d 174
2019 09 14 03  23 39 45.813   -22 30 56.52  .02536 1.0301 160.9 24.9  64d 173
2019 09 14 04  23 39 46.711   -22 31 15.95  .02548 1.0302 160.8 24.9  64d 173
2019 09 14 05  23 39 47.599   -22 31 35.09  .02561 1.0303 160.8 24.9  65d 173
2019 09 14 06  23 39 48.477   -22 31 53.96  .02574 1.0304 160.8 24.9  65d 173
2019 09 14 07  23 39 49.345   -22 32 12.57  .02587 1.0305 160.8 24.9  65d 173